Probability
74 71 97 97 90 87 87 90 90 87 84 87 90 90 87 84 81 81 84 81 81 87 90 97 97 94 94 94 97 100 100 100 100 100 100 97 100 100 97 97 100 100 100
77 71 97 97 94 84 94 97 97 90 94 97 94 94 94 84 87 81 81 81 81 77 77 90 94 97 94 94 97 97 100 97 97 97 97 100 100 100 100 100 100 97 100
71 77 94 100 81 77 77 84 90 87 94 94 87 87 87 81 77 71 68 77 77 74 74 81 90 90 94 87 90 94 90 94 94 100 100 100 100 97 94 97 94 90 94
55 61 77 97 84 81 65 68 74 81 81 84 77 87 84 77 81 81 68 77 81 74 71 71 74 81 71 74 74 94 90 100 94 97 100 97 97 97 90 87 90 94 90
61 71 84 90 90 81 74 68 71 71 68 84 84 84 87 84 84 77 71 68 68 65 68 74 71 74 77 77 68 71 81 84 94 100 90 94 81 81 81 84 84 84 84
45 68 74 81 77 71 71 61 65 68 77 84 87 90 94 94 90 84 71 68 58 61 58 65 77 77 74 68 71 71 77 81 94 77 74 87 87 74 65 68 77 77 77
29 35 32 48 45 39 52 48 48 52 74 74 81 87 90 90 87 84 90 81 74 61 65 61 61 65 74 74 74 71 77 87 77 58 74 84 81 74 68 71 68 68 68
13 16 10 29 23 19 26 23 23 32 32 45 52 58 74 77 81 87 87 90 84 71 65 48 55 61 71 81 77 71 68 87 52 39 55 71 77 77 65 61 74 71 71
0 0 3 3 6 10 10 10 19 23 26 26 29 45 58 77 81 81 87 87 97 94 77 74 65 55 52 74 77 74 74 90 68 52 39 58 81 71 61 65 74 71 68
0 0 3 3 6 0 10 13 19 10 10 16 26 35 42 55 71 77 77 84 87 77 87 81 81 61 48 65 81 84 90 71 16 6 35 58 81 71 68 65 68 81 65
0 0 6 3 3 3 0 0 6 6 16 13 23 29 35 32 39 61 65 71 71 74 74 81 81 87 77 77 90 94 87 13 6 13 26 81 81 71 61 52 58 68 65
0 0 0 3 0 0 0 3 3 0 3 16 19 16 23 26 19 19 35 45 52 65 68 68 74 77 81 32 55 94 29 0 3 16 45 94 87 65 52 48 52 58 61
0 0 0 0 0 3 3 3 3 3 3 0 6 16 16 16 26 26 29 35 42 45 42 52 58 52 48 10 6 10 0 0 3 3 45 94 94 87 65 52 55 45 58
0 0 0 0 0 0 0 0 0 3 3 3 13 10 13 19 23 23 29 29 23 19 26 32 35 29 29 13 6 0 0 0 0 16 32 97 97 94 81 61 48 65 55
0 0 0 0 0 0 0 0 0 0 0 3 6 3 6 10 10 13 16 29 26 13 10 13 19 19 10 13 3 0 0 0 0 16 29 90 97 97 94 74 65 55 61
0 0 0 0 0 0 0 0 0 0 0 0 0 0 3 6 6 6 6 19 10 13 6 13 13 10 10 6 3 0 0 0 3 16 3 71 97 97 100 97 81 68 77
0 0 0 0 0 0 0 0 0 0 0 0 0 0 0 0 0 0 10 10 13 10 10 13 10 10 6 6 13 6 0 0 0 3 13 6 10 87 97 100 100 94 84
0 0 0 0 0 0 0 0 0 0 0 0 0 0 0 0 0 0 3 6 10 10 6 6 13 16 10 10 0 0 3 0 0 0 3 3 3 0 48 97 100 97 97
0 0 0 0 0 0 0 0 0 0 0 0 0 0 0 0 0 0 0 3 3 10 6 3 10 13 6 6 6 0 3 3 3 0 0 0 3 3 0 13 94 94 100
0 0 0 0 0 0 0 0 0 0 0 0 0 0 0 0 0 0 0 0 0 6 6 6 3 13 13 10 3 0 6 3 3 0 0 0 0 0 0 0 0 32 90
0 0 0 0 0 0 0 0 0 0 0 0 0 3 3 3 3 0 0 0 0 0 0 6 6 0 10 10 3 3 3 3 0 0 0 0 0 0 3 3 0 0 0
0 0 0 0 0 0 0 0 0 0 0 0 0 0 3 6 3 0 0 0 0 3 0 0 3 3 3 0 0 0 0 0 0 0 0 0 0 0 0 6 0 0 0
0 0 0 0 0 0 0 0 0 0 0 0 0 3 0 0 3 3 3 0 0 0 0 0 0 0 3 3 0 0 0 0 0 0 0 0 0 0 0 0 3 3 3
0 0 0 0 0 0 0 0 0 0 0 0 0 0 0 0 0 0 0 0 0 0 0 0 0 0 0 0 0 0 0 0 0 0 0 0 0 0 0 0 0 0 3
0 0 0 0 0 0 0 0 0 0 0 0 0 0 0 0 0 0 0 0 0 0 0 0 0 0 0 0 0 0 0 0 0 0 0 0 0 0 0 0 0 0 0
0 0 0 0 0 0 0 0 0 0 0 0 0 0 0 0 0 0 0 0 0 0 0 0 0 0 0 0 0 0 0 0 0 0 0 0 0 0 0 0 0 0 0
Height
5900 5899 5899 5899 5898 5898 5897 5896 5896 5895 5894 5893 5892 5892 5891 5891 5891 5891 5891 5891 5891 5891 5892 5892 5893 5894 5895 5895 5896 5897 5898 5899 5900 5900 5901 5901 5901 5901 5901 5901 5901 5900 5900
5899 5898 5898 5897 5897 5897 5896 5896 5895 5894 5893 5893 5892 5891 5891 5891 5890 5890 5890 5890 5890 5890 5890 5891 5891 5891 5892 5893 5894 5895 5895 5896 5897 5898 5898 5899 5899 5899 5900 5900 5900 5899 5900
5898 5897 5896 5896 5895 5895 5894 5894 5893 5893 5892 5892 5891 5891 5890 5890 5889 5889 5889 5889 5889 5889 5889 5889 5889 5889 5890 5890 5891 5892 5893 5894 5894 5895 5896 5896 5896 5897 5898 5898 5898 5898 5899
5896 5895 5894 5893 5893 5892 5892 5891 5891 5891 5891 5890 5890 5889 5889 5889 5888 5888 5888 5888 5888 5887 5887 5887 5887 5887 5888 5888 5889 5890 5890 5891 5892 5893 5893 5894 5894 5894 5895 5896 5897 5897 5897
5895 5893 5892 5891 5890 5889 5888 5888 5888 5888 5888 5888 5888 5887 5887 5887 5887 5887 5887 5887 5886 5886 5886 5886 5886 5886 5886 5886 5887 5887 5888 5888 5889 5890 5891 5892 5892 5892 5893 5894 5895 5895 5896
5893 5891 5889 5888 5887 5886 5885 5885 5884 5884 5884 5884 5885 5885 5885 5885 5885 5885 5885 5885 5885 5885 5885 5884 5884 5884 5884 5884 5885 5885 5886 5886 5887 5888 5889 5889 5889 5890 5891 5892 5893 5894 5894
5889 5887 5886 5884 5883 5882 5881 5881 5881 5880 5880 5880 5881 5881 5881 5882 5882 5883 5883 5883 5883 5883 5883 5883 5883 5883 5883 5883 5883 5883 5883 5884 5885 5886 5886 5887 5887 5888 5889 5890 5891 5892 5893
5884 5883 5881 5880 5879 5877 5876 5876 5876 5876 5875 5875 5876 5877 5878 5878 5879 5879 5880 5880 5881 5881 5881 5881 5881 5881 5881 5881 5881 5882 5882 5882 5883 5884 5885 5885 5886 5887 5888 5889 5890 5890 5892
5879 5877 5876 5874 5873 5872 5871 5871 5871 5870 5870 5871 5871 5872 5873 5874 5874 5875 5876 5877 5877 5878 5879 5879 5879 5879 5879 5880 5880 5880 5881 5881 5882 5882 5883 5883 5884 5885 5886 5887 5888 5889 5890
5873 5871 5869 5868 5867 5866 5865 5865 5865 5864 5864 5865 5866 5866 5867 5868 5869 5870 5871 5872 5873 5874 5875 5876 5876 5877 5877 5878 5878 5879 5879 5880 5881 5881 5882 5882 5883 5884 5886 5887 5888 5888 5890
5866 5864 5862 5860 5859 5858 5858 5858 5858 5858 5858 5858 5859 5860 5861 5862 5863 5865 5866 5867 5868 5870 5871 5872 5873 5874 5875 5876 5877 5877 5878 5879 5880 5881 5881 5882 5883 5884 5885 5886 5887 5888 5889
5859 5857 5855 5853 5851 5851 5850 5850 5850 5850 5850 5851 5852 5853 5854 5855 5857 5858 5860 5861 5863 5864 5866 5868 5869 5871 5872 5873 5874 5875 5876 5877 5879 5880 5880 5881 5882 5883 5884 5885 5886 5887 5889
5853 5851 5848 5846 5844 5843 5842 5842 5842 5842 5842 5843 5844 5845 5847 5849 5850 5852 5854 5855 5857 5859 5861 5863 5865 5866 5868 5870 5872 5873 5874 5876 5877 5878 5879 5880 5881 5883 5884 5885 5886 5887 5888
5848 5845 5842 5840 5837 5836 5835 5834 5833 5834 5834 5835 5836 5837 5839 5841 5843 5844 5847 5849 5851 5853 5855 5857 5860 5862 5864 5866 5869 5870 5872 5873 5875 5877 5877 5879 5880 5882 5883 5884 5885 5887 5888
5844 5841 5838 5834 5832 5830 5828 5827 5826 5826 5826 5827 5828 5829 5831 5833 5835 5837 5840 5842 5845 5847 5849 5852 5854 5856 5858 5862 5864 5866 5869 5871 5872 5874 5875 5877 5879 5880 5882 5883 5885 5886 5888
5840 5837 5834 5830 5827 5825 5823 5821 5820 5819 5819 5819 5820 5821 5822 5825 5827 5830 5832 5835 5838 5840 5843 5845 5848 5850 5853 5856 5859 5861 5864 5866 5869 5871 5873 5875 5877 5879 5880 5882 5884 5885 5887
5838 5834 5831 5827 5824 5820 5818 5816 5814 5813 5812 5813 5813 5814 5815 5817 5819 5822 5825 5828 5830 5833 5836 5839 5842 5844 5847 5850 5853 5854 5857 5862 5864 5867 5870 5872 5874 5876 5878 5880 5882 5884 5886
5836 5832 5828 5824 5820 5817 5814 5812 5810 5808 5807 5807 5807 5808 5809 5810 5812 5815 5817 5820 5823 5826 5829 5832 5835 5838 5841 5844 5847 5849 5852 5856 5860 5863 5866 5869 5871 5874 5876 5878 5880 5882 5884
5834 5830 5826 5822 5818 5815 5811 5809 5806 5804 5803 5802 5802 5802 5803 5804 5806 5808 5810 5813 5816 5819 5822 5825 5828 5831 5835 5837 5840 5843 5847 5851 5854 5857 5861 5864 5868 5870 5872 5875 5877 5880 5882
5833 5829 5825 5821 5817 5813 5809 5806 5803 5801 5799 5798 5797 5797 5797 5798 5800 5802 5804 5806 5809 5811 5814 5818 5821 5825 5828 5831 5834 5837 5841 5845 5848 5851 5855 5859 5862 5866 5868 5871 5874 5876 5879
5833 5828 5824 5820 5816 5812 5808 5804 5801 5798 5796 5794 5793 5793 5793 5794 5795 5796 5798 5800 5802 5805 5807 5810 5814 5817 5821 5824 5827 5831 5834 5837 5841 5845 5848 5852 5856 5860 5863 5866 5869 5872 5875
5832 5828 5824 5819 5815 5811 5807 5803 5800 5797 5794 5792 5791 5790 5790 5790 5790 5791 5792 5794 5796 5798 5801 5804 5807 5810 5813 5816 5820 5823 5827 5831 5834 5838 5841 5845 5849 5853 5857 5861 5864 5867 5870
5832 5828 5823 5819 5815 5811 5807 5803 5799 5796 5793 5791 5790 5788 5788 5787 5787 5787 5788 5789 5790 5792 5794 5797 5800 5803 5806 5809 5813 5817 5820 5823 5826 5830 5834 5838 5842 5846 5850 5854 5857 5861 5864
5832 5828 5824 5820 5815 5811 5807 5803 5800 5796 5794 5791 5789 5788 5786 5785 5784 5783 5783 5784 5785 5787 5788 5790 5793 5796 5799 5802 5805 5808 5812 5815 5819 5822 5826 5830 5834 5838 5842 5846 5850 5854 5857
5833 5829 5825 5821 5817 5813 5809 5804 5801 5797 5794 5792 5789 5787 5785 5784 5782 5781 5780 5780 5781 5782 5783 5785 5787 5789 5792 5794 5797 5801 5804 5807 5811 5815 5818 5822 5826 5830 5834 5838 5841 5845 5850
5834 5831 5827 5823 5819 5815 5811 5807 5803 5799 5796 5793 5790 5788 5785 5783 5781 5780 5779 5778 5777 5778 5778 5779 5781 5782 5784 5787 5789 5792 5796 5799 5802 5805 5809 5813 5817 5821 5825 5829 5833 5837 5842
Wind_Speed
10 10 10 10 10 10 9 9 8 8 8 8 7 7 8 8 9 10 11 12 13 14 15 16 17 18 18 18 19 19 19 18 18 17 15 14 13 12 11 11 11 10 10
11 12 12 12 12 12 12 11 10 10 10 9 9 9 8 8 8 9 9 10 11 12 13 15 16 17 17 18 18 18 18 19 19 18 17 16 15 14 13 12 11 11 9
12 13 13 14 15 15 14 14 13 13 12 11 11 10 10 9 9 9 9 9 10 11 12 13 14 15 16 16 17 17 18 19 19 19 18 17 16 15 14 13 12 11 9
13 14 15 16 17 17 17 17 16 16 15 14 13 12 12 11 10 9 9 9 9 9 10 10 12 13 13 14 15 16 17 17 18 18 18 17 16 15 14 13 12 11 9
15 16 17 18 18 18 19 20 20 20 19 18 16 15 14 13 12 11 10 10 9 8 8 9 9 10 11 12 13 14 15 16 17 16 16 16 15 14 13 12 11 10 8
19 19 20 19 19 20 20 21 22 23 23 22 20 19 18 16 15 14 12 11 10 9 8 8 8 9 9 10 11 12 13 14 15 14 14 14 14 13 12 11 10 9 8
22 22 22 22 22 22 22 22 22 24 25 25 24 23 21 20 18 17 15 14 12 11 10 8 8 8 8 8 9 9 11 12 12 12 12 12 12 11 10 9 9 8 7
25 25 26 25 25 24 24 24 25 25 25 27 28 26 25 23 21 20 18 17 15 14 12 10 9 8 8 8 8 8 9 9 10 10 10 9 9 9 8 8 8 7 7
29 28 29 28 28 27 26 26 26 26 27 27 29 28 27 26 25 24 23 21 19 17 15 13 11 9 8 8 7 7 8 8 8 8 8 8 8 8 7 7 7 7 7
31 32 31 31 31 31 30 30 29 29 27 27 27 28 29 28 26 26 26 25 23 21 18 16 13 12 10 8 8 7 7 7 7 7 7 8 7 7 7 7 7 7 7
32 33 34 34 34 34 34 33 33 33 32 30 28 28 28 29 28 27 27 26 26 24 22 19 17 15 12 10 9 8 8 8 7 7 8 8 8 8 8 8 7 7 7
32 33 33 34 34 34 35 35 35 35 35 34 33 32 30 28 28 28 28 27 25 25 24 23 20 18 16 13 11 10 10 9 8 8 8 8 9 8 8 8 8 7 8
31 32 32 32 33 33 32 33 34 35 35 35 35 34 33 32 31 29 29 28 27 26 25 25 24 21 19 17 15 13 12 11 10 10 9 10 10 9 9 8 8 8 8
27 28 28 29 29 30 29 29 31 32 32 33 34 35 34 34 32 31 31 30 29 27 25 24 25 24 23 21 19 17 15 14 13 12 11 11 11 11 10 9 9 9 9
25 25 25 25 25 25 26 26 27 27 28 29 30 32 33 33 33 33 31 32 30 29 27 25 25 25 24 24 22 21 19 17 16 15 14 13 13 12 11 11 10 10 9
22 22 22 22 22 22 22 22 23 24 25 26 27 28 30 30 31 33 32 32 31 30 30 28 26 26 26 25 25 24 23 21 20 19 17 16 15 14 13 12 12 11 10
21 21 21 21 21 21 20 20 20 21 22 23 24 26 27 28 29 31 31 31 32 32 31 30 28 27 27 27 27 26 25 24 23 22 21 19 18 17 16 15 14 13 12
21 21 21 21 21 20 19 19 19 19 19 20 21 23 25 26 27 28 30 30 31 31 31 30 30 30 28 27 27 27 27 26 26 26 25 23 22 20 19 17 16 15 14
21 21 20 21 20 19 18 18 18 17 17 18 19 20 21 23 25 26 27 29 30 30 31 30 30 30 30 28 27 27 26 27 28 28 28 27 25 24 22 21 19 18 17
20 21 20 20 20 19 18 18 17 16 16 16 17 18 18 20 21 23 25 27 28 29 30 30 31 31 31 31 29 28 27 27 27 28 29 31 30 28 26 25 23 21 20
21 21 20 20 20 19 18 17 16 15 14 14 14 14 15 17 18 20 23 24 26 28 29 30 31 32 32 32 31 30 28 28 27 28 29 31 32 32 30 28 27 25 24
21 21 21 21 20 20 19 17 16 15 13 12 11 11 12 13 15 17 20 22 24 26 28 28 30 31 32 33 32 32 31 29 28 29 28 30 33 34 34 32 31 29 27
20 21 21 21 21 20 19 18 17 15 13 12 11 10 10 11 12 14 16 19 21 23 25 27 28 30 31 32 33 33 32 32 31 31 30 30 32 34 34 34 34 33 31
20 21 21 21 21 21 21 19 18 16 14 13 11 11 10 10 11 12 13 15 18 20 23 25 26 27 29 30 32 34 34 34 34 32 32 32 32 34 35 36 36 36 35
20 21 21 22 22 22 22 21 20 18 17 15 13 12 11 10 10 10 11 12 15 17 20 23 25 26 27 29 31 33 34 35 36 35 34 34 34 34 35 37 37 38 37
19 20 21 22 22 23 22 22 21 20 19 17 16 15 14 12 10 10 10 11 12 15 17 20 22 25 27 28 30 32 34 35 36 36 37 37 36 36 36 36 36 37 39
Wind_Direction
287 281 280 278 277 273 268 264 262 259 257 255 254 252 249 247 246 246 245 246 247 247 245 245 245 245 245 243 242 242 242 243 246 251 256 260 265 271 280 291 301 311 322
292 286 280 278 277 274 269 264 262 260 258 258 257 254 252 250 250 251 250 250 249 248 248 247 246 246 245 245 244 244 242 242 245 248 253 259 263 267 274 282 290 300 309
295 288 281 279 275 272 268 265 262 262 260 259 258 256 254 253 252 252 253 253 253 251 252 250 248 247 246 245 244 243 242 243 245 247 251 256 261 264 269 274 280 287 295
298 292 288 284 278 271 265 262 259 260 260 258 257 256 255 254 254 255 255 256 256 255 254 253 251 249 248 246 244 243 244 246 247 249 251 255 259 262 264 266 271 275 281
298 295 294 289 281 274 267 261 256 255 255 255 255 255 255 254 254 255 256 256 257 257 257 256 254 251 249 247 245 245 245 246 248 250 248 252 256 259 259 260 262 263 266
296 293 293 290 285 277 272 267 261 257 253 252 252 253 253 253 254 254 255 256 256 257 257 257 255 254 251 250 248 246 245 245 246 247 247 249 251 253 253 254 253 253 250
293 291 289 287 285 278 273 270 268 264 258 253 250 250 251 251 252 253 253 254 254 254 254 255 255 253 253 249 246 245 242 241 241 243 245 245 246 247 245 242 242 240 237
290 288 287 286 285 280 274 270 268 264 264 257 251 250 249 249 249 249 250 250 250 250 250 250 251 251 251 248 244 243 241 236 234 235 236 234 231 234 231 231 231 226 222
290 289 285 283 282 279 274 272 269 266 264 260 256 253 250 249 249 248 248 248 247 246 245 245 246 246 247 247 243 238 235 231 229 227 223 222 222 221 218 218 214 208 206
290 289 287 284 281 277 275 272 271 269 267 264 262 257 252 249 251 252 249 247 245 243 241 240 241 242 242 242 238 234 232 228 222 212 208 216 214 208 206 206 203 198 195
291 290 288 285 282 279 277 275 272 270 269 267 265 262 257 252 250 253 253 250 245 243 240 237 237 239 240 239 236 232 230 226 218 207 206 208 206 201 197 197 196 190 186
296 293 291 287 284 282 280 276 273 272 270 269 268 267 263 258 255 255 254 252 248 244 240 237 236 236 238 238 236 231 228 224 217 208 207 205 202 197 192 189 188 187 183
300 297 295 292 289 286 283 280 275 273 270 268 268 267 265 263 261 260 259 255 253 250 246 240 235 235 236 236 235 232 228 226 221 213 211 205 200 197 194 189 185 183 180
307 305 303 300 295 290 287 284 280 277 273 270 268 267 266 265 264 264 262 259 254 253 253 248 239 235 234 234 234 234 231 227 222 216 213 208 204 202 199 194 189 187 185
315 313 310 307 302 297 291 286 282 279 275 272 269 267 265 262 261 262 264 260 257 255 254 252 248 239 234 232 233 233 232 229 225 219 216 210 208 205 204 201 196 193 192
323 322 320 316 312 306 299 293 287 282 278 273 270 267 264 262 259 259 260 259 256 255 255 255 254 250 244 237 234 233 232 229 227 223 222 219 214 211 209 208 205 201 198
331 331 329 326 321 315 309 302 295 287 281 276 271 266 263 261 258 257 258 258 257 257 255 255 256 255 249 243 238 234 232 229 227 224 224 224 221 217 214 213 210 208 206
338 336 335 333 329 323 318 312 305 296 287 280 274 268 264 261 259 256 256 256 256 256 254 253 255 256 253 248 242 239 237 231 228 227 225 226 225 223 220 217 215 214 212
343 342 341 339 337 333 328 322 314 306 296 287 279 273 267 263 260 256 253 254 255 255 253 252 253 253 253 252 249 244 239 235 232 231 229 227 227 227 225 222 220 218 217
349 347 346 344 343 340 336 330 324 315 306 298 289 279 271 265 263 259 255 253 253 253 253 251 251 251 252 252 251 249 245 241 239 235 232 229 228 227 227 226 223 223 222
352 351 350 349 349 346 343 340 336 329 320 311 301 289 277 271 267 263 258 255 253 252 251 251 250 249 250 251 251 248 247 246 243 240 238 234 229 228 228 228 227 226 227
356 356 355 355 355 354 352 350 347 344 339 332 323 309 292 282 275 268 262 259 256 254 252 251 250 249 249 250 250 250 247 244 246 243 243 238 232 229 229 229 230 230 230
2 2 3 3 3 3 2 0 359 357 353 348 342 331 317 302 288 278 269 263 260 257 255 253 252 251 250 249 249 249 249 247 245 244 243 242 237 232 231 230 231 232 232
9 10 12 12 12 12 12 11 10 8 5 2 355 344 331 319 306 293 280 270 264 260 258 256 255 254 252 250 249 248 248 247 247 246 244 243 241 237 234 233 233 233 233
16 18 19 20 20 19 19 19 19 17 16 13 8 0 350 336 324 312 297 281 271 266 262 259 257 255 253 252 249 248 247 247 248 248 246 244 243 242 239 237 235 234 234
21 23 23 24 25 24 23 23 23 22 22 20 16 12 7 359 347 333 317 301 287 275 268 265 262 259 257 255 252 249 247 247 247 247 245 243 243 243 242 240 238 237 235